STARLINK-1626, 46167

Orbit data source: Space-Track

STARLINK-1626, 46167 is a payload satellite owned by SpaceX/Seattle (US) in LEO that was launched on Tue, 18 Aug 2020 UTC via an FALCON 9 launch vehicle from the Air Force Eastern Test Range (AFETR). Payload-class satellites include a variety of spacecraft equipped with specific instruments for various scientific and technological missions. These include communications satellites like Starlink; space stations such as the ISS; scientific satellites like the Hubble; Earth observation satellites from companies like Planet Labs, Umbra, and HawkEye 360; GPS; miniature CubeSats for education and research; and military/defense satellites.

Loading next visibility...
Identifier
46167, 2020-057BC
Orbit
LEO
Country
Flag of USUS
Related business
Manufacturer
SpaceX/Seattle
Mission
Partially operational Commercial Communications
Bus & Motor
STARLINK, Unknown motor
Mass
260 kg wet, ~248 kg dry
Launch date (UTC)
2020-08-18 (6 years ago)
Launch vehicle
FALCON 9
Launch site
Air Force Eastern Test Range (AFETR)
Object type
Payload
Rocket body
Debris
Shape & HBR
Box + 1 Pan, 10.1 m
Radar Cross Section
13.562 m², Large (>1 m²)

Expand to show TLE details & history
Last TLE update: 10 hours ago

TLE from 10 hours ago
0 STARLINK-1626
1 46167U 20057BC  26122.92303154  .00079808  00000-0  75238-3 0  9998
2 46167  53.0453  29.7508 0002718  78.7929 281.3391 15.66389584314850
Epoch: 2026-05-02T22:09Z
TLE epoch observation values (Epoch: 2026-05-02T22:09:09.925Z)
Latitude
-0.00003°
Longitude
-163.37455°
Altitude
369.786 km
Speed
7.689 km/s
True Right ascension
01h 59m 00s
True Declination
0° 00' 00"
Sunlit
Object was in daylight at epoch
Visualization orbit readout
Latitude
Unknown
Longitude
Unknown
Altitude
Unknown
Speed
Unknown
Apparent Right ascension
Unknown
Apparent Declination
Unknown
Sunlit
N/A
Visualization observer readout
Local Sidereal Time
15:49:50
Azimuth
Unknown
Elevation
Unknown
Doppler factor
Unknown
Orbital elements
Apogee altitude
371.358 km
Perigee altitude
367.69 km
Semi-major axis
6,747.661 km
Eccentricity
0.00027
Inclination
53.0453°
RAAN
29.7508°
Arg. of periapsis
78.7929°
True anomaly
281.30856°
Mean anomaly
281.3391°
Eccentric anomaly
281.32383°
Mean motion
3.91573 °/min
Orbital period
91.94 mins
BSTAR
0.00075238
Loading maneuver chart data...
Computing Atmospheric mass density...
Loading historical data...
Loading historical data...
Loading historical data...
Loading historical data...
Loading historical data...
Loading historical data...
Loading historical data...

Documentation

Showing up to 5 results
|